Tracking 19476 objects as of 17-Jan-2019
HD Live streaming from Space Station
objects crossing your sky now

COSMOS 2038

Track COSMOS 2038 now!
10-day predictions
COSMOS 2038 is classified as:


NORAD ID: 20232
Int'l Code: 1989-074A
Perigee: 1,398.2 km
Apogee: 1,417.9 km
Inclination: 82.6 °
Period: 113.8 minutes
Semi major axis: 7779 km
RCS: 1.1763 m2 (large)
Launch date: September 14, 1989
Source: Commonwealth of Independent States (former USSR) (CIS)
Launch site: PLESETSK MISSILE AND SPACE COMPLEX (PKMTR)
aabbcc
Your satellite tracking list
Your tracking list is empty




NASA's NSSDC Master Catalog

Two Line Element Set (TLE):
1 20232U 89074A   19016.82311477 -.00000001  00000-0 -61026-4 0  9999
2 20232  82.5755 128.4108 0012680 108.9746   8.6498 12.65359109329201
Source of the keplerian elements: AFSPC